Regional Weather Roundup
Issued by NWS Midland/Odessa, TX

Home | Current Version | Previous Version | Text Only | Print | Product List | Glossary On
Versions: 1 2 3 4 5 6 7 8 9 10 11 12 13 14 15 16 17 18 19 20 21 22 23 24 25 26 27 28 29 30 31 32 33 34 35 36 37 38 39 40 41 42 43 44 45 46 47 48 49 50
000
ASUS44 KMAF 190210
RWRMAF
MIDLAND AREA WEATHER ROUNDUP
NATIONAL WEATHER SERVICE MIDLAND TX
800 PM CST WED JAN 18 2017

...IN SOUTHWEST TEXAS AND SOUTHEAST NEW MEXICO...

CITY           SKY/WX    TMP DP  RH WIND       PRES   REMARKS
ALPINE         CLEAR     48  28  46 W3        30.11R
ANDREWS        FAIR      48  39  69 SW6       29.98S
ARTESIA        PTCLDY    52  39  62 SW14      29.96S
BIG SPRING     CLEAR     47  44  90 SE8       30.00S
CARLSBAD       CLEAR     48  40  73 SW10      29.98R
DRYDEN           N/A     49  43  80 E3        30.01R
FORT STOCKTON  CLEAR     50  42  74 S7        30.01R
GUAD PASS      CLEAR     44  34  67 W26       30.03R WCI  35
HOBBS          NOT AVBL
MARFA          CLEAR     42  30  62 W7        30.08S WCI  38
MIDLAND AIRPK  CLEAR     51  44  76 S7        29.99R
MIDLAND INTL   CLEAR     52  42  69 S9        29.98R
ODESSA         CLEAR     49  40  71 S8        29.99R
PECOS          CLEAR     51  39  62 W8        29.99R
PRESIDIO       FAIR      54  37  51 NW5       30.01S
SEMINOLE       CLEAR     47  40  77 SW6       29.97S
SNYDER         CLEAR     47  42  81 S7        29.98S
WINK           CLEAR     49  39  68 W9        29.97R
$$
...OTHER STATIONS IN TEXAS...

CITY           SKY/WX    TMP DP  RH WIND       PRES   REMARKS
ABILENE        CLOUDY    45  44  97 S7        29.99S
AMARILLO       CLEAR     45  37  73 S10       29.86F WCI  40
AUSTIN         DRIZZLE   55  52  89 NE8       30.02S FOG
BROWNSVILLE    CLOUDY    65  59  81 N5        30.00R
CORPUS CHRISTI LGT RAIN  60  55  83 N8        30.00F
DALLAS FTW     CLOUDY    53  50  89 CALM      29.98S
DEL RIO        PTCLDY    48  45  89 CALM      30.03S
EL PASO        PTCLDY    52  35  52 SW9       30.02S
HOUSTON INT    FOG       60  58  92 NW7       29.99S VSB 1
LUBBOCK        CLEAR     48  41  76 S10       29.92F
SAN ANGELO     CLOUDY    44  42  93 S6        30.00S
SAN ANTONIO    MOCLDY    57  50  77 N7        30.02S
WACO           CLOUDY    52  49  89 CALM      30.01F
WICHITA FALLS  NOT AVBL
$$
...OTHER LOCATIONS IN NEW MEXICO...

CITY           SKY/WX    TMP DP  RH WIND       PRES   REMARKS
ALAMAGORDO     CLOUDY    45  37  76 SE5       30.02F
ALBUQUERQUE    CLOUDY    44  32  62 NW6       30.00S
CANNON AFB     MOCLDY    44  40  86 SW13      29.90S WCI  38
CLOVIS         CLEAR     43  34  70 SW10      29.90S WCI  37
HOLLOMAN AFB   MOCLDY    45  39  79 SE7       30.04S
ROSWELL        CLOUDY    48  33  56 W10       29.94R
RUIDOSO        CLEAR     37  27  65 W13G22    29.99F WCI  29
SANTA FE       CLOUDY    35  26  69 N12       29.98S WCI  27
TRUTH OR CONSE CLOUDY    47  40  76 W5        30.01R
TUCUMCARI      CLEAR     47  32  56 SW13      29.80F
$$




USA.gov is the U.S. government's official web portal to all federal, state and local government web resources and services.